Belfast, United Kingdom

7:53 AM BST on July 26, 2017 (GMT +0100)
Aldergrove

Weather History for EGAA - March, 2013

Change the Weather History Date:

Friday, March 1, 2013

  Actual Average Record
Temperature  
Mean Temperature 40 °F -  
Max Temperature 49 °F 48 °F 53 °F (1997)
Min Temperature 32 °F 36 °F 21 °F (2004)
Degree Days  
Heating Degree Days 24    
Moisture  
Dew Point 39 °F    
Average Humidity 89    
Maximum Humidity 100    
Minimum Humidity 64    
Precipitation  
Precipitation 0.00 in 0.09 in - ()
Sea Level Pressure  
Sea Level Pressure 30.51 in    
Wind  
Wind Speed 2 mph ()    
Max Wind Speed 7 mph    
Max Gust Speed -    
Visibility 5.4 miles    
Events      
Averages and records for this station are not official NWS values.
T = Trace of Precipitation, MM = Missing Value Source: Averaged Metar Reports

Daily Weather History Graph

Daily Weather History Graph

Search for Another Location

Airport or City:

Trip Planner

Search our weather history database for the weather conditions in past years. The results will help you decide how hot, cold, wet, or windy it might be!

Date:

Astronomy

Mar. 01, 2013 Rise Set
Actual Time 7:14 AM GMT 6:01 PM GMT
Civil Twilight 6:37 AM GMT 6:37 PM GMT
Nautical Twilight 5:56 AM GMT 7:19 PM GMT
Astronomical Twilight 5:14 AM GMT 8:01 PM GMT
Moon 11:10 PM GMT (3/1) 8:07 AM GMT (3/1)
Length of Visible Light 11h 59m
Length of Day
10h 47m
Waning Gibbous, 85% of the Moon is Illuminated
Mar 1
Waning Gibbous
Mar 4
Last Quarter
Mar 11
New
Mar 19
First Quarter
Mar 27
Full

Hourly Weather History & Observations

Time (GMT) Temp. Windchill Dew Point Humidity Pressure Visibility Wind Dir Wind Speed Gust Speed Precip Events Conditions
12:20 AM 41.0 °F - 41.0 °F 100% 30.54 in 5.6 mi Calm Calm - N/A   Mostly Cloudy
12:50 AM 41.0 °F - 41.0 °F 100% 30.51 in 4.3 mi Calm Calm - N/A   Scattered Clouds
1:20 AM 41.0 °F 39.0 °F 41.0 °F 100% 30.51 in 5.0 mi North 3.5 mph - N/A   Mostly Cloudy
1:50 AM 41.0 °F - 41.0 °F 100% 30.51 in 5.0 mi NNW 2.3 mph - N/A   Overcast
2:20 AM 41.0 °F - 41.0 °F 100% 30.51 in 3.1 mi Calm Calm - N/A   Mostly Cloudy
2:50 AM 41 °F - 41 °F 99% 30.53 in 3 mi NNW 3.5 mph - -   Mist
2:50 AM 41.0 °F 39.0 °F 41.0 °F 100% 30.51 in 3.1 mi NNW 3.5 mph - N/A   Mostly Cloudy
3:20 AM 41.0 °F 39.0 °F 41.0 °F 100% 30.51 in - North 3.5 mph - N/A   Overcast
3:50 AM 41.0 °F - 41.0 °F 100% 30.51 in - Calm Calm - N/A   Overcast
4:20 AM 41.0 °F - 41.0 °F 100% 30.51 in - Calm Calm - N/A   Overcast
4:50 AM 41.0 °F - 41.0 °F 100% 30.51 in 3.1 mi Calm Calm - N/A   Overcast
5:50 AM 41 °F - 40 °F 97% 30.52 in 3 mi NNW 1.2 mph - -   Mist
5:50 AM 41.0 °F - 41.0 °F 100% 30.51 in 1.7 mi Calm Calm - N/A   Overcast
6:20 AM 41.0 °F - 41.0 °F 100% 30.51 in 4.3 mi Calm Calm - N/A   Mostly Cloudy
6:50 AM 41.0 °F - 41.0 °F 100% 30.51 in 2.2 mi Calm Calm - N/A   Mostly Cloudy
7:20 AM 41.0 °F - 41.0 °F 100% 30.51 in - Calm Calm - N/A   Mostly Cloudy
7:50 AM 41.0 °F - 41.0 °F 100% 30.51 in 5.0 mi Variable 2.3 mph - N/A   Mostly Cloudy
8:20 AM 41.0 °F - 41.0 °F 100% 30.51 in 5.6 mi Calm Calm - N/A   Mostly Cloudy
8:50 AM 42 °F - 42 °F 98% 30.54 in 4 mi NNE 1.2 mph - -   Mist
8:50 AM 42.8 °F - 42.8 °F 100% 30.54 in 5.6 mi Variable 2.3 mph - N/A   Mostly Cloudy
9:20 AM 42.8 °F - 42.8 °F 100% 30.54 in 5.6 mi ENE 2.3 mph - N/A   Mostly Cloudy
9:50 AM 44.6 °F - 44.6 °F 100% 30.54 in 5.6 mi ENE 2.3 mph - N/A   Mostly Cloudy
10:20 AM 46.4 °F 45.2 °F 46.4 °F 100% 30.54 in 5.6 mi Variable 3.5 mph - N/A   Mostly Cloudy
10:50 AM 46.4 °F 45.2 °F 44.6 °F 93% 30.54 in 6.2 mi ENE 3.5 mph - N/A   Mostly Cloudy
11:20 AM 46.4 °F - 42.8 °F 87% 30.54 in 6.2 mi Variable 2.3 mph - N/A   Overcast
11:50 AM 46 °F - 43 °F 84% 30.55 in 6 mi WNW 3.5 mph - -   Light Haze
11:50 AM 48.2 °F - 41.0 °F 76% 30.54 in 6.2 mi Variable 2.3 mph - N/A   Overcast
12:20 PM 46.4 °F - 41.0 °F 81% 30.54 in 6.2 mi Calm Calm - N/A   Mostly Cloudy
12:50 PM 46.4 °F 43.5 °F 41.0 °F 81% 30.54 in 6.2 mi West 5.8 mph - N/A   Mostly Cloudy
1:20 PM 46.4 °F 43.5 °F 41.0 °F 81% 30.51 in 6.2 mi WSW 5.8 mph - N/A   Mostly Cloudy
1:50 PM 46.4 °F 45.2 °F 41.0 °F 81% 30.51 in 6.2 mi Variable 3.5 mph - N/A   Mostly Cloudy
2:20 PM 46.4 °F 45.2 °F 41.0 °F 81% 30.51 in 6.2 mi Variable 3.5 mph - N/A   Mostly Cloudy
2:50 PM 47 °F - 39 °F 65% 30.52 in 10 mi West 4.6 mph - -   Mostly Cloudy
2:50 PM 48.2 °F - 39.2 °F 71% 30.51 in 6.2 mi Variable 3.5 mph - N/A   Mostly Cloudy
3:20 PM 46.4 °F 45.2 °F 39.2 °F 76% 30.51 in 6.2 mi Variable 3.5 mph - N/A   Mostly Cloudy
3:50 PM 48.2 °F - 39.2 °F 71% 30.48 in 6.2 mi SSE 4.6 mph - N/A   Mostly Cloudy
4:20 PM 46.4 °F 45.2 °F 37.4 °F 71% 30.48 in 6.2 mi SSE 3.5 mph - N/A   Scattered Clouds
4:50 PM 46.4 °F - 37.4 °F 71% 30.48 in 6.2 mi Calm Calm - N/A   Scattered Clouds
5:20 PM 46.4 °F - 37.4 °F 71% 30.48 in 6.2 mi Calm Calm - N/A   Scattered Clouds
5:50 PM 44 °F - 36 °F 64% 30.49 in 9 mi SSE 3.5 mph - -  
5:50 PM 42.8 °F 41.1 °F 35.6 °F 76% 30.48 in 6.2 mi SSE 3.5 mph - N/A   Partly Cloudy
6:20 PM 37.4 °F 34.9 °F 32.0 °F 81% 30.48 in - SE 3.5 mph - N/A   Clear
6:50 PM 35.6 °F 32.8 °F 32.0 °F 87% 30.48 in - SE 3.5 mph - N/A   Clear
7:20 PM 35.6 °F 31.7 °F 32.0 °F 87% 30.48 in - SSE 4.6 mph - N/A   Clear
7:50 PM 37.4 °F 33.8 °F 33.8 °F 87% 30.48 in - SSE 4.6 mph - N/A   Clear
8:20 PM 37.4 °F 32.1 °F 33.8 °F 87% 30.48 in 6.2 mi SSE 6.9 mph - N/A   Scattered Clouds
8:50 PM 38 °F - 32 °F 71% 30.51 in 6 mi South 4.6 mph - -   Light Haze
8:50 PM 33.8 °F - 32.0 °F 93% 30.48 in 6.2 mi SE 2.3 mph - N/A   Mostly Cloudy
9:20 PM 35.6 °F - 32.0 °F 87% 30.48 in 6.2 mi Variable 2.3 mph - N/A   Mostly Cloudy
9:50 PM 33.8 °F - 32.0 °F 93% 30.51 in 5.0 mi Calm Calm - N/A   Mostly Cloudy
10:20 PM 33.8 °F - 32.0 °F 93% 30.48 in 5.0 mi Variable 2.3 mph - N/A   Mostly Cloudy
10:50 PM 35.6 °F 32.8 °F 32.0 °F 87% 30.48 in 5.6 mi Variable 3.5 mph - N/A   Mostly Cloudy
11:20 PM 32.0 °F - 30.2 °F 93% 30.48 in 5.0 mi ESE 2.3 mph - N/A   Mostly Cloudy
11:50 PM 33 °F - 30 °F 83% 30.50 in 6 mi ESE 2.3 mph - -  
11:50 PM 32.0 °F - 30.2 °F 93% 30.48 in 5.0 mi SE 2.3 mph - N/A   Unknown